Date String (YYYY-MM-DD hh:mm:ss) UTC,Instrument flags,absolute air pressure of the measurement (hPa),sample flow rate (lpm),inlet stack bypass flow (lpm),air temperature of the measurement (°C),ambient temperature measured by the external sensor (°C),aerosol sample conditioner tube jacket temperature (°C),OPC LED temperature (°C),internal box temperature (°C),relative humidity of the measurement (%),span deviation,mass concentration of particles derived from Lorenz-Mie calculation of OPC scattering (μg/m³),mass concentration of particles derived from Lorenz-Mie calculation of OPC scattering (μg/m³),mass concentration of particles derived from Lorenz-Mie calculation of OPC scattering (μg/m³)
DateTimeUTC,F1_M11,P_M11,Q1_M11,Q2_M11,T1_M11,T2_M11,T3_M11,T4_M11,T5_M11,U1_M11,ZSPAN_M11,X0_M11,X2_M11,X1_M11
2023-06-15 09:00:00,SystemResetWarning,0825.4,5.00,000.00,029.8,028.1,000.0,038.5,031.3,24.8,0000.0,0004.92,0002.38,0001.65
2023-06-15 09:01:00,SystemResetWarning,0825.5,5.00,000.00,029.8,028.2,000.0,038.5,031.3,24.9,0000.0,0004.98,0002.38,0001.64
2023-06-15 09:02:00,SystemResetWarning,0825.5,5.00,000.00,029.8,028.2,000.0,038.5,031.3,25.2,0000.0,0005.08,0002.38,0001.63
2023-06-15 09:03:00,SystemResetWarning,0825.5,4.99,000.00,029.8,028.2,000.0,038.5,031.4,25.2,0000.0,0004.73,0002.32,0001.61
2023-06-15 09:04:00,SystemResetWarning,0825.5,5.00,000.00,029.8,028.3,000.0,038.5,031.4,25.1,0000.0,0004.49,0002.30,0001.60
2023-06-15 09:05:00,SystemResetWarning,0825.6,5.00,000.00,029.8,028.3,000.0,038.5,031.4,25.2,0000.0,0004.41,0002.30,0001.61
2023-06-15 09:06:00,SystemResetWarning,0825.5,5.00,000.00,029.9,028.3,000.0,038.5,031.4,25.4,0000.0,0004.19,0002.24,0001.63
2023-06-15 09:07:00,SystemResetWarning,0825.5,5.00,000.00,029.9,028.3,000.0,038.5,031.4,24.2,0000.0,0003.99,0002.23,0001.64
2023-06-15 09:08:00,SystemResetWarning,0825.4,5.00,000.00,029.9,028.3,000.0,038.5,031.4,24.7,0000.0,0003.95,0002.28,0001.66
2023-06-15 09:09:00,SystemResetWarning,0825.4,5.00,000.00,029.9,028.3,000.0,038.5,031.4,25.0,0000.0,0004.09,0002.29,0001.68
2023-06-15 09:10:00,SystemResetWarning,0825.4,5.01,000.00,029.9,028.3,000.0,038.5,031.4,25.1,0000.0,0004.84,0002.36,0001.68
2023-06-15 09:11:00,SystemResetWarning,0825.4,5.00,000.00,029.9,028.3,000.0,038.5,031.4,25.0,0000.0,0004.82,0002.35,0001.69
2023-06-15 09:12:00,SystemResetWarning,0825.4,5.01,000.00,029.9,028.4,000.0,038.6,031.4,24.9,0000.0,0004.81,0002.33,0001.70
2023-06-15 09:13:00,SystemResetWarning,0825.4,5.01,000.00,029.9,028.4,000.0,038.6,031.5,25.1,0000.0,0004.71,0002.32,0001.71
2023-06-15 09:14:00,SystemResetWarning,0825.4,5.00,000.00,030.0,028.4,000.0,038.6,031.4,25.0,0000.0,0004.90,0002.38,0001.73
2023-06-15 09:15:00,SystemResetWarning,0825.4,5.00,000.00,029.9,028.4,000.0,038.6,031.4,25.2,0000.0,0005.06,0002.43,0001.75
2023-06-15 09:16:00,SystemResetWarning,0825.4,5.00,000.00,029.9,028.4,000.0,038.6,031.4,25.0,0000.0,0005.58,0002.55,0001.77
2023-06-15 09:17:00,SystemResetWarning,0825.4,4.99,000.00,029.9,028.3,000.0,038.6,031.4,25.1,0000.0,0005.79,0002.60,0001.77
2023-06-15 09:18:00,SystemResetWarning,0825.4,5.00,000.00,029.9,028.3,000.0,038.6,031.4,25.2,0000.0,0005.90,0002.67,0001.79
2023-06-15 09:19:00,SystemResetWarning,0825.4,5.00,000.00,029.9,028.3,000.0,038.6,031.4,25.3,0000.0,0005.99,0002.70,0001.82
2023-06-15 09:20:00,SystemResetWarning,0825.4,5.01,000.00,029.9,028.3,000.0,038.6,031.4,25.4,0000.0,0006.21,0002.73,0001.83
2023-06-15 09:21:00,SystemResetWarning,0825.4,5.00,000.00,029.9,028.3,000.0,038.6,031.4,25.4,0000.0,0006.02,0002.70,0001.83
2023-06-15 09:22:00,SystemResetWarning,0825.4,5.00,000.00,030.0,028.4,000.0,038.6,031.5,25.4,0000.0,0006.47,0002.77,0001.87
2023-06-15 09:23:00,SystemResetWarning,0825.5,5.00,000.00,030.0,028.4,000.0,038.6,031.5,25.4,0000.0,0006.86,0002.84,0001.88
2023-06-15 09:24:00,SystemResetWarning,0825.5,5.00,000.00,030.0,028.4,000.0,038.6,031.5,25.3,0000.0,0007.17,0002.95,0001.91
2023-06-15 09:25:00,SystemResetWarning,0825.4,5.00,000.00,030.0,028.4,000.0,038.6,031.5,25.3,0000.0,0007.30,0002.99,0001.93
2023-06-15 09:26:00,SystemResetWarning,0825.4,5.00,000.00,030.0,028.4,000.0,038.6,031.5,25.4,0000.0,0007.14,0002.96,0001.95
2023-06-15 09:27:00,SystemResetWarning,0825.4,5.00,000.00,030.0,028.4,000.0,038.6,031.5,25.4,0000.0,0006.86,0002.90,0001.96
2023-06-15 09:28:00,SystemResetWarning,0825.3,4.99,000.00,030.0,028.4,000.0,038.6,031.5,25.4,0000.0,0006.94,0002.87,0001.98
2023-06-15 09:29:00,SystemResetWarning,0825.3,4.99,000.00,030.0,028.4,000.0,038.6,031.5,25.3,0000.0,0006.85,0002.84,0001.99
2023-06-15 09:30:00,SystemResetWarning,0825.3,4.99,000.00,030.0,028.4,000.0,038.6,031.5,25.1,0000.0,0006.81,0002.84,0002.00
2023-06-15 09:31:00,SystemResetWarning,0825.3,5.00,000.00,030.0,028.4,000.0,038.6,031.5,25.2,0000.0,0006.64,0002.83,0002.01
2023-06-15 09:32:00,SystemResetWarning,0825.2,5.00,000.00,030.0,028.4,000.0,038.6,031.5,25.3,0000.0,0006.37,0002.84,0002.03
2023-06-15 09:33:00,SystemResetWarning,0825.2,5.00,000.00,030.0,028.4,000.0,038.6,031.5,25.2,0000.0,0005.60,0002.78,0002.03
2023-06-15 09:34:00,SystemResetWarning,0825.2,5.00,000.00,030.0,028.3,000.0,038.6,031.4,25.1,0000.0,0005.30,0002.74,0002.03
2023-06-15 09:35:00,SystemResetWarning,0825.2,5.00,000.00,030.0,028.3,000.0,038.6,031.4,25.1,0000.0,0004.86,0002.68,0002.03
2023-06-15 09:36:00,SystemResetWarning,0825.2,5.00,000.00,030.0,028.3,000.0,038.6,031.4,24.7,0000.0,0004.69,0002.64,0002.03
2023-06-15 09:37:00,SystemResetWarning,0825.2,5.01,000.00,030.0,028.3,000.0,038.6,031.4,24.7,0000.0,0005.12,0002.61,0002.02
2023-06-15 09:38:00,SystemResetWarning,0825.2,5.00,000.00,030.0,028.3,000.0,038.6,031.4,25.0,0000.0,0005.95,0002.63,0002.00
2023-06-15 09:39:00,SystemResetWarning,0825.2,5.00,000.00,030.0,028.3,000.0,038.6,031.4,25.0,0000.0,0007.10,0002.59,0001.98
2023-06-15 09:40:00,SystemResetWarning,0825.2,5.00,000.00,030.0,028.3,000.0,038.6,031.4,25.0,0000.0,0006.95,0002.56,0001.97
2023-06-15 09:41:00,SystemResetWarning,0825.2,5.00,000.00,030.0,028.3,000.0,038.6,031.4,25.1,0000.0,0007.01,0002.57,0001.97
2023-06-15 09:42:00,SystemResetWarning,0825.2,5.00,000.00,029.9,028.3,000.0,038.6,031.4,25.1,0000.0,0007.00,0002.56,0001.97
2023-06-15 09:43:00,SystemResetWarning,0825.2,5.00,000.00,029.9,028.3,000.0,038.6,031.4,25.2,0000.0,0006.92,0002.55,0001.98
2023-06-15 09:44:00,SystemResetWarning,0825.2,5.00,000.00,030.0,028.3,000.0,038.6,031.4,25.2,0000.0,0007.08,0002.58,0002.00
2023-06-15 09:45:00,SystemResetWarning,0825.2,5.00,000.00,030.0,028.3,000.0,038.6,031.4,25.3,0000.0,0007.36,0002.69,0002.00
2023-06-15 09:46:00,SystemResetWarning,0825.2,5.00,000.00,030.0,028.4,000.0,038.6,031.4,25.2,0000.0,0007.49,0002.76,0002.01
2023-06-15 09:47:00,SystemResetWarning,0825.2,5.00,000.00,030.0,028.4,000.0,038.6,031.4,24.8,0000.0,0008.08,0002.76,0002.00
2023-06-15 09:48:00,SystemResetWarning,0825.1,5.00,000.00,030.0,028.4,000.0,038.6,031.5,24.7,0000.0,0008.07,0002.77,0002.01
2023-06-15 09:49:00,SystemResetWarning,0825.1,5.00,000.00,030.0,028.4,000.0,038.6,031.5,24.8,0000.0,0008.21,0002.74,0002.02
2023-06-15 09:50:00,SystemResetWarning,0825.1,5.02,000.00,030.0,028.4,000.0,038.6,031.5,24.9,0000.0,0007.51,0002.80,0002.02
2023-06-15 09:51:00,SystemResetWarning,0825.1,5.00,000.00,030.0,028.4,000.0,038.6,031.5,24.8,0000.0,0007.92,0002.84,0002.03
2023-06-15 09:52:00,SystemResetWarning,0825.1,4.99,000.00,030.0,028.4,000.0,038.6,031.4,24.9,0000.0,0008.03,0002.86,0002.02
2023-06-15 09:53:00,SystemResetWarning,0825.1,5.00,000.00,030.0,028.4,000.0,038.6,031.4,24.8,0000.0,0007.98,0002.84,0002.01
2023-06-15 09:54:00,SystemResetWarning,0825.1,5.00,000.00,030.0,028.4,000.0,038.6,031.4,24.9,0000.0,0007.90,0002.77,0001.98
2023-06-15 09:55:00,SystemResetWarning,0825.1,5.00,000.00,030.0,028.4,000.0,038.6,031.4,24.9,0000.0,0007.86,0002.77,0001.97
2023-06-15 09:56:00,SystemResetWarning,0825.1,5.00,000.00,030.0,028.4,000.0,038.6,031.3,24.8,0000.0,0007.84,0002.70,0001.95
2023-06-15 09:57:00,SystemResetWarning,0825.0,5.00,000.00,029.9,028.3,000.0,038.6,031.2,24.8,0000.0,0007.84,0002.62,0001.92
2023-06-15 09:58:00,SystemResetWarning,0825.0,5.00,000.00,029.9,028.3,000.0,038.6,031.2,24.4,0000.0,0007.22,0002.60,0001.91
2023-06-15 09:59:00,SystemResetWarning,0825.0,5.00,000.00,029.9,028.3,000.0,038.6,031.3,24.2,0000.0,0006.81,0002.60,0001.90
